Ely, MN

10:21 PM CST on November 22, 2017 (GMT -0600)
Ely Municipal

Weather History for KELO - December, 2013

Change the Weather History Date:

Wednesday, December 18, 2013

  Actual Average Record
Temperature  
Mean Temperature 4 °F -  
Max Temperature 21 °F 19 °F 41 °F (1997)
Min Temperature -14 °F 4 °F -27 °F (2008)
Degree Days  
Heating Degree Days 62    
Moisture  
Dew Point -2 °F    
Average Humidity 82    
Maximum Humidity 100    
Minimum Humidity 58    
Precipitation  
Precipitation 0.00 in - - ()
Sea Level Pressure  
Sea Level Pressure 29.72 in    
Wind  
Wind Speed 2 mph (SE)    
Max Wind Speed 13 mph    
Max Gust Speed 17 mph    
Visibility 10 miles    
Events      
Averages and records for this station are not official NWS values.
T = Trace of Precipitation, MM = Missing Value Source: NWS Daily Summary

Daily Weather History Graph

Daily Weather History Graph

Search for Another Location

Airport or City:

Trip Planner

Search our weather history database for the weather conditions in past years. The results will help you decide how hot, cold, wet, or windy it might be!

Date:

Astronomy

Dec. 18, 2013 Rise Set
Actual Time 7:52 AM CST 4:16 PM CST
Civil Twilight 7:15 AM CST 4:52 PM CST
Nautical Twilight 6:36 AM CST 5:31 PM CST
Astronomical Twilight 5:58 AM CST 6:09 PM CST
Moon 5:55 PM CST (12/18) 8:26 AM CST (12/18)
Length of Visible Light 9h 36m
Length of Day
8h 24m
Full, 98% of the Moon is Illuminated
Dec 18
Full
Dec 25
Last Quarter
Jan 1
New
Jan 7
First Quarter
Jan 15
Full

Hourly Weather History & Observations

Time (CST) Temp. Windchill Dew Point Humidity Pressure Visibility Wind Dir Wind Speed Gust Speed Precip Events Conditions
12:12 AM -7.6 °F - -11.2 °F 84% 29.92 in 10.0 mi Calm Calm - N/A   Clear
12:33 AM -9.4 °F - -11.2 °F 92% 29.92 in 10.0 mi Calm Calm - N/A   Clear
12:53 AM -11.2 °F - -14.8 °F 84% 29.91 in 10.0 mi Calm Calm - N/A   Clear
1:12 AM -13.0 °F - -16.6 °F 84% 29.90 in 10.0 mi Calm Calm - N/A   Clear
1:33 AM -14.8 °F - -18.4 °F 84% 29.92 in 10.0 mi Calm Calm - N/A   Clear
1:53 AM -13.0 °F - -16.6 °F 84% 29.91 in 10.0 mi Calm Calm - N/A   Clear
2:12 AM -13.0 °F - -18.4 °F 77% 29.90 in 10.0 mi Calm Calm - N/A   Clear
2:33 AM -13.0 °F -22.7 °F -16.6 °F 84% 29.89 in 10.0 mi SSW 3.5 mph - N/A   Clear
2:52 AM -11.2 °F - -16.6 °F 77% 29.89 in 10.0 mi Calm Calm - N/A   Clear
3:13 AM -11.2 °F - -16.6 °F 77% 29.88 in 10.0 mi Calm Calm - N/A   Clear
3:33 AM -14.8 °F - -18.4 °F 84% 29.88 in 10.0 mi Calm Calm - N/A   Clear
3:53 AM -14.8 °F - -18.4 °F 84% 29.87 in 10.0 mi Calm Calm - N/A   Clear
4:12 AM -13.0 °F - -16.6 °F 84% 29.87 in 10.0 mi Calm Calm - N/A   Clear
4:33 AM -14.8 °F - -18.4 °F 84% 29.86 in 10.0 mi Calm Calm - N/A   Clear
4:53 AM -11.2 °F -23.0 °F -16.6 °F 77% 29.83 in 10.0 mi ESE 4.6 mph - N/A   Clear
5:12 AM -13.0 °F - -16.6 °F 84% 29.83 in 10.0 mi Calm Calm - N/A   Clear
5:33 AM -11.2 °F - -14.8 °F 84% 29.83 in 10.0 mi Calm Calm - N/A   Clear
5:53 AM -11.2 °F - -16.6 °F 77% 29.83 in 10.0 mi Calm Calm - N/A   Clear
6:12 AM -13.0 °F -22.7 °F -16.6 °F 84% 29.82 in 10.0 mi ESE 3.5 mph - N/A   Scattered Clouds
6:33 AM -9.4 °F -18.6 °F -13.0 °F 84% 29.81 in 10.0 mi SE 3.5 mph - N/A   Overcast
6:53 AM -7.6 °F -18.8 °F -11.2 °F 84% 29.80 in 10.0 mi ESE 4.6 mph - N/A   Overcast
7:12 AM -5.8 °F -16.7 °F -9.4 °F 84% 29.79 in 10.0 mi SE 4.6 mph - N/A   Overcast
7:33 AM -5.8 °F -19.9 °F -9.4 °F 84% 29.76 in 10.0 mi SE 6.9 mph - N/A   Overcast
7:53 AM -4.0 °F -16.3 °F -9.4 °F 78% 29.77 in 10.0 mi SSE 5.8 mph - N/A   Overcast
8:12 AM -2.2 °F -10.4 °F -7.6 °F 78% 29.75 in 10.0 mi SSE 3.5 mph - N/A   Overcast
8:33 AM -2.2 °F - -7.6 °F 78% 29.75 in 10.0 mi Calm Calm - N/A   Overcast
8:53 AM -0.4 °F -8.3 °F -5.8 °F 78% 29.73 in 10.0 mi ESE 3.5 mph - N/A   Mostly Cloudy
9:12 AM -0.4 °F -8.3 °F -4.0 °F 85% 29.73 in 10.0 mi East 3.5 mph - N/A   Scattered Clouds
9:33 AM 1.4 °F -6.2 °F -2.2 °F 85% 29.73 in 7.0 mi East 3.5 mph - N/A   Scattered Clouds
9:53 AM 3.2 °F - -2.2 °F 78% 29.73 in 10.0 mi Calm Calm - N/A   Scattered Clouds
10:12 AM 3.2 °F - -0.4 °F 85% 29.73 in 10.0 mi Calm Calm - N/A   Scattered Clouds
10:33 AM 5.0 °F -4.1 °F -0.4 °F 78% 29.71 in 10.0 mi ENE 4.6 mph - N/A   Scattered Clouds
10:53 AM 6.8 °F -0.1 °F 1.4 °F 79% 29.70 in 10.0 mi East 3.5 mph - N/A   Mostly Cloudy
11:12 AM 8.6 °F 2.0 °F 1.4 °F 73% 29.68 in 10.0 mi ENE 3.5 mph - N/A   Scattered Clouds
11:33 AM 10.4 °F -1.5 °F 3.2 °F 73% 29.64 in 10.0 mi ESE 8.1 mph - N/A   Scattered Clouds
11:53 AM 12.2 °F 0.7 °F 5.0 °F 73% 29.64 in 5.0 mi ESE 8.1 mph - N/A   Haze
12:12 PM 15.8 °F 2.1 °F 5.0 °F 62% 29.61 in 10.0 mi SE 12.7 mph - N/A   Clear
12:33 PM 15.8 °F 4.2 °F 6.8 °F 68% 29.60 in 10.0 mi SE 9.2 mph - N/A   Clear
12:53 PM 17.6 °F 7.3 °F 8.6 °F 68% 29.59 in 10.0 mi SSE 8.1 mph - N/A   Clear
1:12 PM 19.4 °F 7.9 °F 8.6 °F 63% 29.58 in 10.0 mi South 10.4 mph - N/A   Clear
1:33 PM 19.4 °F 12.8 °F 8.6 °F 63% 29.59 in 10.0 mi South 4.6 mph - N/A   Clear
1:53 PM 21.2 °F 11.7 °F 8.6 °F 58% 29.59 in 1.5 mi South 8.1 mph - N/A   Haze
2:13 PM 21.2 °F 10.9 °F 10.4 °F 63% 29.58 in 10.0 mi SSW 9.2 mph - N/A   Clear
2:32 PM 19.4 °F 8.6 °F 10.4 °F 68% 29.57 in 10.0 mi South 9.2 mph - N/A   Clear
2:53 PM 17.6 °F 7.3 °F 10.4 °F 73% 29.57 in 10.0 mi SSE 8.1 mph - N/A   Scattered Clouds
3:13 PM 17.6 °F 5.7 °F 10.4 °F 73% 29.58 in 10.0 mi SE 10.4 mph - N/A   Overcast
3:32 PM 15.8 °F 4.2 °F 10.4 °F 79% 29.58 in 10.0 mi SE 9.2 mph - N/A   Overcast
3:53 PM 15.8 °F 6.1 °F 10.4 °F 79% 29.58 in 10.0 mi SE 6.9 mph - N/A   Overcast
4:13 PM 14.0 °F 3.9 °F 10.4 °F 86% 29.58 in 10.0 mi SSE 6.9 mph - N/A   Mostly Cloudy
4:32 PM 14.0 °F 8.2 °F 10.4 °F 86% 29.59 in 10.0 mi SSE 3.5 mph - N/A   Clear
4:53 PM 12.2 °F - 8.6 °F 85% 29.60 in 10.0 mi Calm Calm - N/A   Clear
5:13 PM 12.2 °F - 8.6 °F 85% 29.61 in 10.0 mi Calm Calm - N/A   Scattered Clouds
5:33 PM 8.6 °F - 6.8 °F 92% 29.62 in 10.0 mi Calm Calm - N/A   Clear
5:52 PM 8.6 °F - 5.0 °F 85% 29.62 in 10.0 mi Calm Calm - N/A   Clear
6:13 PM 8.6 °F - 6.8 °F 92% 29.62 in 10.0 mi Calm Calm - N/A   Scattered Clouds
6:33 PM 8.6 °F - 6.8 °F 92% 29.63 in 10.0 mi Calm Calm - N/A   Mostly Cloudy
6:52 PM 8.6 °F - 6.8 °F 92% 29.62 in 10.0 mi Calm Calm - N/A   Overcast
7:13 PM 6.8 °F - 6.8 °F 100% 29.62 in 10.0 mi Calm Calm - N/A   Scattered Clouds
7:33 PM 6.8 °F - 5.0 °F 92% 29.63 in 10.0 mi Calm Calm - N/A   Clear
7:52 PM 3.2 °F - -0.4 °F 85% 29.63 in 10.0 mi Calm Calm - N/A   Clear
8:13 PM 3.2 °F - 1.4 °F 92% 29.63 in 10.0 mi Calm Calm - N/A   Clear
8:33 PM 3.2 °F - -0.4 °F 85% 29.64 in 10.0 mi Calm Calm - N/A   Clear
8:52 PM 3.2 °F - -0.4 °F 85% 29.66 in 10.0 mi Calm Calm - N/A   Mostly Cloudy
9:13 PM 3.2 °F - -0.4 °F 85% 29.66 in 10.0 mi Calm Calm - N/A   Overcast
9:33 PM 3.2 °F - 1.4 °F 92% 29.66 in 10.0 mi Calm Calm - N/A   Overcast
9:52 PM 5.0 °F - 1.4 °F 85% 29.66 in 10.0 mi Calm Calm - N/A   Overcast
10:13 PM 5.0 °F - 3.2 °F 92% 29.67 in 10.0 mi Calm Calm - N/A   Overcast
10:33 PM 6.8 °F - 3.2 °F 85% 29.68 in 10.0 mi Calm Calm - N/A   Overcast
10:52 PM 6.8 °F - 5.0 °F 92% 29.70 in 10.0 mi Calm Calm - N/A   Overcast
11:13 PM 10.4 °F -0.4 °F 8.6 °F 92% 29.71 in 10.0 mi NW 6.9 mph - N/A   Overcast
11:33 PM 12.2 °F 1.7 °F 10.4 °F 92% 29.71 in 10.0 mi NW 6.9 mph - N/A   Overcast
11:53 PM 12.2 °F -0.2 °F 8.6 °F 85% 29.73 in 10.0 mi NW 9.2 mph 17.3 mph N/A   Overcast